#timestamp,LO_Frequency,Hit 
1503194415.2,286047007.1,N
1503194435.0,286047006.2,N
1503194435.9,286047006.2,N
1503194455.8,286047003.0,N
1503194475.6,286047004.4,N
1503194495.4,286047005.4,N
1503194515.2,286047007.1,N
1503194535.1,286047007.4,N
1503194536.0,286047007.4,N
1503194555.8,286047005.2,N
1503194575.6,286047005.5,N
1503194595.5,286047005.4,N
1503194615.3,286047003.2,N
1503194635.1,286047005.2,N
1503194655.9,286047007.1,P
1503194675.7,286047004.3,P
1503194695.5,286047004.4,P
1503194715.4,286047002.9,N
1503194735.2,286047003.5,N
1503194755.0,286047002.2,N
1503194755.9,286047002.2,N
1503194775.8,286047001.3,N
1503194795.6,286047004.0,N
1503194815.4,286047005.8,P
1503194835.3,286047002.3,N
1503194855.1,286047000.0,N
1503194875.8,286046997.0,N
1503194895.7,286046998.8,N
1503194915.5,286047000.5,N
1503194935.3,286047004.4,N
1503194955.2,286047004.3,N
1503194975.9,286047005.6,N
1503194995.7,286047003.3,N
1503195015.6,286047003.1,N
1503195035.4,286047004.4,N
1503195055.2,286047002.4,N
1503195075.0,286047000.2,N
1503195075.9,286047000.2,N
1503195095.8,286046998.3,N
1503195115.6,286047000.2,N
1503195135.4,286047002.3,N
1503195155.3,286047005.2,N
1503195175.1,286047004.1,N
1503195195.8,286047005.7,N
1503195215.7,286047005.8,N
1503195235.5,286047003.2,N
1503195255.3,286047003.2,N
1503195275.2,286047002.2,N
1503195295.9,286047002.6,N
1503195315.7,286047000.3,N
1503195335.5,286047002.6,N
1503195355.4,286047003.8,N
1503195375.2,286047002.4,N
1503195395.0,286047001.6,N
1503195395.9,286047001.6,N
1503195415.8,286047005.6,N
1503195435.6,286047002.0,N
1503195455.4,286047001.8,N
1503195475.3,286047005.5,N
1503195495.1,286047003.2,N
1503195515.8,286047003.1,N
1503195535.7,286047005.5,N
1503195555.5,286047005.9,P
1503195575.3,286047003.5,N
1503195595.2,286047004.2,P
1503195615.9,286047005.8,P
1503195635.7,286047004.2,P
1503195655.6,286047003.0,P
1503195675.4,286047003.6,P
1503195695.2,286046998.9,P
1503195715.1,286046999.2,N
1503195716.0,286046999.2,N
1503195735.8,286047002.8,N
1503195755.6,286047003.7,N
1503195775.5,286047003.1,N
1503195795.3,286047002.4,N
1503195815.1,286046999.7,N
1503195835.9,286046999.3,N
1503195855.7,286046994.9,N
1503195875.5,286046995.3,N
1503195895.4,286046995.6,N
1503195915.2,286046997.7,N
1503195935.0,286046994.9,N
1503195935.9,286046994.9,N
1503195955.8,286046993.9,N
1503195975.6,286046993.2,N
1503195995.4,286046989.7,N
1503196015.2,286046988.9,N
1503196035.1,286046985.7,P
1503196036.0,286046985.7,N
1503196055.8,286046990.6,N
1503196075.7,286046991.0,N
1503196095.5,286046989.1,N
1503196115.3,286046989.2,N
1503196135.2,286046989.2,N
1503196155.9,286046992.3,N
1503196175.7,286046992.5,N
1503196195.5,286046991.7,N
1503196215.4,286046994.3,N
1503196235.2,286046994.3,N
1503196255.0,286046993.1,N
1503196255.9,286046993.1,N
1503196275.8,286046988.9,P
1503196295.6,286046997.3,N
1503196315.4,286046999.0,N
1503196335.3,286047000.3,N
1503196355.1,286046998.3,N
1503196375.8,286046997.8,N
1503196395.7,286046993.2,N
1503196415.5,286046990.9,N
1503196435.3,286046993.2,N
1503196455.2,286046993.3,N
1503196475.9,286046995.5,N
1503196495.7,286046995.1,N
1503196515.6,286046997.9,N
1503196535.4,286047002.5,N
1503196555.2,286047001.4,N
1503196575.0,286047001.6,N
1503196575.9,286047001.6,N
1503196595.8,286047003.1,N
1503196615.6,286047002.0,N
1503196635.4,286047002.1,N
1503196655.3,286046998.6,N
1503196675.1,286046998.2,N
1503196695.8,286047001.5,N
1503196715.7,286047003.8,N
1503196735.5,286047004.3,N
1503196755.3,286047003.4,N
1503196775.2,286047002.2,N
1503196795.9,286047001.7,N
1503196815.7,286047001.8,N
1503196835.5,286047002.0,N
1503196855.4,286047003.7,N
1503196875.2,286047005.6,N
1503196895.0,286047002.0,N
1503196895.9,286047002.0,N
1503196915.8,286047002.8,N
1503196935.6,286047004.9,N
1503196955.4,286047006.6,N
1503196975.3,286047007.0,N
1503196995.1,286047005.4,N
1503197015.8,286047004.5,N
1503197035.7,286047007.6,N
1503197055.5,286047004.5,N
1503197075.3,286047004.2,N
1503197095.2,286047005.7,N
1503197115.9,286047002.9,N
1503197135.7,286047005.7,N
1503197155.5,286047004.7,N
1503197175.4,286047006.9,P
1503197195.2,286047002.7,N
1503197215.1,286047000.6,N
1503197216.0,286047000.6,N
1503197235.8,286047002.4,N
1503197255.6,286047004.3,N
1503197275.4,286046999.7,N
1503197295.3,286046999.8,N
1503197315.1,286047002.8,N
1503197335.8,286047002.4,N
1503197355.7,286047002.2,N
1503197375.5,286047005.2,N
1503197395.3,286047003.8,N
1503197415.2,286047005.7,N
1503197435.9,286047003.4,N
1503197455.7,286047004.2,N
1503197475.6,286047003.0,N
1503197495.4,286047007.1,P
1503197515.2,286047004.1,N
1503197535.1,286047005.9,P
1503197536.0,286047005.9,P
1503197555.8,286046995.1,P
1503197575.6,286046992.2,N
1503197595.5,286046993.2,N
1503197615.3,286046991.4,N
1503197635.1,286046992.5,N
1503197655.9,286046991.8,N
1503197675.7,286046991.7,N
1503197695.5,286046994.2,N
1503197715.4,286046992.2,N
1503197735.2,286046991.8,N
1503197755.0,286046995.7,N
1503197755.9,286046995.7,N
1503197775.8,286046994.1,N
1503197795.6,286046988.7,N
1503197815.4,286046987.6,N
1503197835.2,286046989.2,N
1503197855.1,286046993.1,N
1503197856.0,286046993.1,N
1503197875.8,286046992.5,N
1503197895.6,286046994.3,N
1503197915.5,286046997.9,N
1503197935.3,286046998.0,N
1503197955.1,286046996.7,N
1503197975.9,286046995.4,N
1503197995.7,286046998.8,N
